Terminal Aerodrome Forecast
Issued by NWS Tuscon, AZ

Home | Current Version | Previous Version | Text Only | Print | Product List | Glossary On
Versions: 1 2 3 4 5 6 7 8 9 10 11 12 13 14 15 16 17
000
FTUS45 KTWC 202300 RRA
TAFDUG
TAF
KDUG 202341Z 2100/2124 35007KT P6SM SCT090
     FM210600 VRB04KT P6SM SKC
     FM211900 24010G18KT P6SM SKC=

USA.gov is the U.S. government's official web portal to all federal, state and local government web resources and services.